Weather History for Eufaula, AL

Change the Weather History Date:

Saturday, October 19, 2013

  Actual Average (KLSF) Record (KLSF)
Temperature  
Mean Temperature 67 °F -  
Max Temperature 72 °F 74 °F 86 °F (1998)
Min Temperature 61 °F 49 °F 37 °F (1996)
Cooling Degree Days 2    
Growing Degree Days 17 (Base 50)    
Moisture  
Dew Point 60 °F    
Average Humidity 84    
Maximum Humidity 97    
Minimum Humidity 59    
Precipitation  
Precipitation 0.01 in - - ()
Sea Level Pressure  
Sea Level Pressure 29.96 in    
Wind  
Wind Speed 1 mph (NNW)    
Max Wind Speed 5 mph    
Max Gust Speed -    
Visibility 10 miles    
Events Rain    
Averages and records for this station are not official NWS values.
T = Trace of Precipitation, MM = Missing Value Source: NWS Daily Summary

Daily Weather History Graph

Daily Weather History Graph

Search for Another Location

Airport:

Trip Planner

Search our weather history database for the weather conditions in past years. The results will help you decide how hot, cold, wet, or windy it might be!

Date:

Astronomy

Oct. 19, 2013 Rise Set
Actual Time 6:47 AM CDT 6:03 PM CDT
Civil Twilight 6:22 AM CDT 6:28 PM CDT
Nautical Twilight 5:53 AM CDT 6:56 PM CDT
Astronomical Twilight 5:25 AM CDT 7:24 PM CDT
Moon 6:35 PM CDT (10/19) 7:20 AM CDT (10/19)
Length of Visible Light 12h 05m
Length of Day
11h 16m
Waxing Gibbous, 99% of the Moon is Illuminated
Oct 19
Waxing Gibbous
Oct 26
Last Quarter
Nov 3
New
Nov 9
First Quarter
Nov 17
Full

Hourly Weather History & Observations

Time (CDT) Temp. Dew Point Humidity Pressure Visibility Wind Dir Wind Speed Gust Speed Precip Events Conditions
12:58 AM 63.0 °F 62.1 °F 97% 29.96 in 8.0 mi Calm Calm - N/A   Partly Cloudy
1:58 AM 63.0 °F 61.0 °F 93% 29.95 in 8.0 mi Calm Calm - N/A   Mostly Cloudy
2:58 AM 62.1 °F 60.1 °F 93% 29.94 in 7.0 mi Calm Calm - N/A   Clear
3:58 AM 62.1 °F 60.1 °F 93% 29.94 in 8.0 mi Calm Calm - N/A   Unknown
4:58 AM 62.1 °F 60.1 °F 93% 29.93 in 10.0 mi Calm Calm - N/A   Partly Cloudy
5:58 AM 62.1 °F 59.0 °F 90% 29.95 in 9.0 mi Calm Calm - N/A   Partly Cloudy
6:58 AM 62.1 °F 60.1 °F 93% 29.96 in 9.0 mi Calm Calm - 0.00 in Rain Light Rain
7:58 AM 63.0 °F 60.1 °F 90% 29.95 in 10.0 mi Calm Calm - 0.00 in   Scattered Clouds
8:58 AM 64.9 °F 60.1 °F 84% 29.97 in 10.0 mi Calm Calm - 0.00 in   Clear
9:58 AM 68.0 °F 60.1 °F 76% 29.97 in 10.0 mi Calm Calm - N/A   Partly Cloudy
10:58 AM 69.1 °F 59.0 °F 70% 29.99 in 10.0 mi NNW 4.6 mph - N/A   Partly Cloudy
11:58 AM 71.1 °F 57.0 °F 61% 29.99 in 10.0 mi NNW 4.6 mph - 0.00 in   Mostly Cloudy
12:58 PM 72.0 °F 57.0 °F 59% 29.96 in 10.0 mi Calm Calm - N/A   Overcast
1:58 PM 69.1 °F 60.1 °F 73% 29.93 in 9.0 mi Variable 3.5 mph - 0.01 in Rain Light Rain
2:58 PM 66.0 °F 61.0 °F 84% 29.93 in 10.0 mi NNW 3.5 mph - 0.00 in Rain Light Rain
3:05 PM 66.2 °F 60.8 °F 83% 29.94 in 10.0 mi NW 4.6 mph - 0.00 in Rain Light Rain
3:58 PM 64.9 °F 60.1 °F 84% 29.94 in 10.0 mi Variable 3.5 mph - 0.00 in   Overcast
4:58 PM 64.9 °F 59.0 °F 81% 29.95 in 10.0 mi Variable 4.6 mph - N/A   Overcast
5:41 PM 64.4 °F 59.0 °F 83% 29.96 in 10.0 mi Calm Calm - N/A   Overcast
5:58 PM 64.0 °F 60.1 °F 87% 29.95 in 10.0 mi Calm Calm - N/A   Overcast
6:58 PM 64.0 °F 60.1 °F 87% 29.96 in 10.0 mi Calm Calm - N/A   Overcast
7:58 PM 63.0 °F 59.0 °F 87% 29.96 in 10.0 mi Calm Calm - N/A   Overcast
8:58 PM 63.0 °F 59.0 °F 87% 29.96 in 10.0 mi Calm Calm - N/A   Overcast
9:58 PM 63.0 °F 59.0 °F 87% 29.98 in 10.0 mi Calm Calm - N/A   Overcast
10:58 PM 62.1 °F 59.0 °F 90% 29.98 in 10.0 mi Calm Calm - N/A   Overcast
11:58 PM 61.0 °F 57.9 °F 90% 29.97 in 10.0 mi Calm Calm - N/A   Mostly Cloudy